Karpathos, Greece

12:14 AM EEST on September 17, 2019 (GMT +0300)
Karpathos

Weather History for LGKP - August, 2019

Change the Weather History Date:

Monday, August 26, 2019

  Actual Average (WUND) Record (WUND)
Temperature  
Mean Temperature 81 °F -  
Max Temperature 86 °F - - (-1)
Min Temperature 76 °F - - (-1)
Cooling Degree Days 16    
Growing Degree Days 31 (Base 50)    
Moisture  
Dew Point 72 °F    
Average Humidity 77    
Maximum Humidity 89    
Minimum Humidity 54    
Precipitation  
Precipitation 0.00 in - - ()
Sea Level Pressure  
Sea Level Pressure 29.81 in    
Wind  
Wind Speed 19 mph ()    
Max Wind Speed 31 mph    
Max Gust Speed 28 mph    
Visibility 6.2 miles    
Events Rain    
Averages and records for this station are not official NWS values.
T = Trace of Precipitation, MM = Missing Value Source: Averaged Metar Reports

Daily Weather History Graph

Daily Weather History Graph

Search for Another Location

Airport or City:

Astronomy

Aug. 26, 2019 Rise Set
Actual Time 6:38 AM EEST 7:47 PM EEST
Civil Twilight 6:12 AM EEST 8:13 PM EEST
Nautical Twilight 5:41 AM EEST 8:44 PM EEST
Astronomical Twilight 5:08 AM EEST 9:17 PM EEST
Moon 1:53 AM EEST (8/26) 4:43 PM EEST (8/26)
Length of Visible Light 14h 01m
Length of Day
13h 08m
Waning Crescent, 22% of the Moon is Illuminated
Aug 26
Waning Crescent
Aug 30
New
Sep 6
First Quarter
Sep 14
Full
Sep 22
Last Quarter

Hourly Weather History & Observations

Time (EEST) Temp. Heat Index Dew Point Humidity Pressure Visibility Wind Dir Wind Speed Gust Speed Precip Events Conditions
12:00 AM 77 °F - 73 °F 83% 29.82 in - NW 16.1 mph - -   Unknown Precipitation
12:20 AM 77.0 °F - 73.4 °F 89% 29.80 in - NW 18.4 mph - N/A Rain Light Rain
12:50 AM 77.0 °F - 73.4 °F 89% 29.80 in - WNW 17.3 mph - N/A Rain Light Rain
1:20 AM 77.0 °F - 73.4 °F 89% 29.80 in - WNW 17.3 mph - N/A Rain Light Rain
1:50 AM 77.0 °F - 71.6 °F 83% 29.77 in - WNW 19.6 mph - N/A Rain Light Rain
2:20 AM 77.0 °F - 71.6 °F 83% 29.77 in - WNW 19.6 mph - N/A Rain Light Rain
2:50 AM 77.0 °F - 71.6 °F 83% 29.77 in - NW 20.7 mph - N/A Rain Light Rain
3:00 AM 77 °F - 72 °F 81% 29.78 in - NW 20.7 mph - -   Unknown Precipitation
3:20 AM 77.0 °F - 71.6 °F 83% 29.77 in - WNW 20.7 mph - N/A Rain Light Rain
3:50 AM 77.0 °F - 71.6 °F 83% 29.77 in - NW 20.7 mph - N/A Rain Light Rain
4:20 AM 77.0 °F - 71.6 °F 83% 29.77 in - WNW 19.6 mph - N/A Rain Light Rain
5:20 AM 77.0 °F - 71.6 °F 83% 29.77 in 6.2 mi NW 25.3 mph - N/A   Partly Cloudy
5:50 AM 77.0 °F - 69.8 °F 78% 29.77 in 6.2 mi NW 21.9 mph - N/A   Partly Cloudy
6:00 AM 77 °F - 72 °F 80% 29.79 in 6 mi NW 20.7 mph - -   Scattered Clouds
6:20 AM 77.0 °F - 71.6 °F 83% 29.80 in 6.2 mi NW 17.3 mph - N/A   Partly Cloudy
6:50 AM 77.0 °F - 71.6 °F 83% 29.80 in 6.2 mi NW 19.6 mph - N/A   Partly Cloudy
7:20 AM 77.0 °F - 71.6 °F 83% 29.80 in 6.2 mi NW 19.6 mph - N/A   Partly Cloudy
7:50 AM 77.0 °F - 71.6 °F 83% 29.80 in 6.2 mi NW 19.6 mph - N/A   Partly Cloudy
8:20 AM 78.8 °F - 71.6 °F 78% 29.80 in 6.2 mi NW 21.9 mph - N/A   Partly Cloudy
8:50 AM 80.6 °F 84.6 °F 71.6 °F 74% 29.83 in 6.2 mi NNW 16.1 mph - N/A   Partly Cloudy
9:00 AM 80 °F - 72 °F 71% 29.83 in 6 mi NW 17.3 mph - -   Scattered Clouds
9:20 AM 80.6 °F 84.6 °F 71.6 °F 74% 29.83 in 6.2 mi NNW 18.4 mph - N/A   Partly Cloudy
9:50 AM 80.6 °F 84.6 °F 71.6 °F 74% 29.83 in 6.2 mi NW 21.9 mph - N/A   Partly Cloudy
10:20 AM 82.4 °F 87.2 °F 71.6 °F 70% 29.83 in 6.2 mi NW 23.0 mph - N/A   Partly Cloudy
10:50 AM 82.4 °F 87.2 °F 71.6 °F 70% 29.83 in 6.2 mi NW 21.9 mph - N/A   Partly Cloudy
11:20 AM 84.2 °F 89.6 °F 71.6 °F 66% 29.83 in 6.2 mi NW 16.1 mph 27.6 mph N/A   Partly Cloudy
11:50 AM 84.2 °F 89.6 °F 71.6 °F 66% 29.83 in 6.2 mi NW 20.7 mph - N/A   Partly Cloudy
12:20 PM 86.0 °F 90.4 °F 69.8 °F 58% 29.83 in 6.2 mi NW 18.4 mph - N/A   Partly Cloudy
12:50 PM 84.2 °F 89.6 °F 71.6 °F 66% 29.83 in 6.2 mi NW 21.9 mph - N/A   Partly Cloudy
1:20 PM 86.0 °F 91.8 °F 71.6 °F 62% 29.83 in 6.2 mi NW 24.2 mph - N/A   Partly Cloudy
1:50 PM 84.2 °F 89.6 °F 71.6 °F 66% 29.83 in 6.2 mi NW 24.2 mph - N/A   Partly Cloudy
2:20 PM 84.2 °F 88.4 °F 69.8 °F 62% 29.83 in 6.2 mi NW 25.3 mph - N/A   Partly Cloudy
3:00 PM 84 °F - 70 °F 54% 29.83 in 6 mi NW 25.3 mph - -   Scattered Clouds
3:20 PM 84.2 °F 88.4 °F 69.8 °F 62% 29.80 in 6.2 mi NW 25.3 mph - N/A   Partly Cloudy
3:50 PM 84.2 °F 89.6 °F 71.6 °F 66% 29.80 in 6.2 mi NW 24.2 mph - N/A   Partly Cloudy
4:20 PM 84.2 °F 89.6 °F 71.6 °F 66% 29.80 in 6.2 mi NW 24.2 mph - N/A   Partly Cloudy
4:50 PM 84.2 °F 89.6 °F 71.6 °F 66% 29.80 in 6.2 mi NW 26.5 mph - N/A   Partly Cloudy
5:20 PM 82.4 °F 87.2 °F 71.6 °F 70% 29.80 in 6.2 mi NW 31.1 mph - N/A   Partly Cloudy
5:50 PM 82.4 °F 87.2 °F 71.6 °F 70% 29.80 in 6.2 mi NW 27.6 mph - N/A   Partly Cloudy
6:20 PM 80.6 °F 84.6 °F 71.6 °F 74% 29.77 in 6.2 mi NW 26.5 mph - N/A   Partly Cloudy
6:50 PM 80.6 °F 84.6 °F 71.6 °F 74% 29.77 in 6.2 mi NW 28.8 mph - N/A   Partly Cloudy
7:20 PM 78.8 °F - 73.4 °F 83% 29.80 in 6.2 mi NW 25.3 mph - N/A   Partly Cloudy
7:50 PM 78.8 °F - 73.4 °F 83% 29.80 in 6.2 mi NW 24.2 mph - N/A   Partly Cloudy
8:20 PM 78.8 °F - 73.4 °F 83% 29.80 in 6.2 mi NW 24.2 mph - N/A   Partly Cloudy
8:50 PM 77.0 °F - 73.4 °F 89% 29.80 in 6.2 mi NW 21.9 mph - N/A   Partly Cloudy
9:00 PM 78 °F - 73 °F 79% 29.82 in 6 mi NW 21.9 mph - -   Scattered Clouds
9:20 PM 77.0 °F - 73.4 °F 89% 29.83 in 6.2 mi NW 23.0 mph - N/A   Partly Cloudy
9:50 PM 77.0 °F - 73.4 °F 89% 29.83 in 6.2 mi NW 23.0 mph - N/A   Partly Cloudy
10:20 PM 77.0 °F - 73.4 °F 89% 29.83 in 6.2 mi NW 23.0 mph - N/A   Partly Cloudy
10:50 PM 77.0 °F - 73.4 °F 89% 29.83 in 6.2 mi NW 21.9 mph - N/A   Partly Cloudy
11:20 PM 77.0 °F - 73.4 °F 89% 29.83 in - WNW 23.0 mph - N/A Rain Light Rain
11:50 PM 77.0 °F - 73.4 °F 89% 29.80 in - WNW 21.9 mph - N/A Rain Light Rain